Time,TemperatureF,DewpointF,PressureIn,WindDirection,WindDirectionDegrees,WindSpeedMPH,WindSpeedGustMPH,Humidity,HourlyPrecipIn,Conditions,Clouds,dailyrainin,SoftwareType,DateUTC
2013-01-15 00:10:00,60.2,60.0,30.09,SW,222,4.0,6.0,100,0.02,,,0.29,weatherlink.com 1.10,2013-01-15 05:10:00,
2013-01-15 00:25:00,59.2,59.0,30.10,WSW,237,0.0,3.0,100,0.02,,,0.29,weatherlink.com 1.10,2013-01-15 05:25:00,
2013-01-15 00:40:00,58.9,59.0,30.09,WSW,237,0.0,1.0,100,0.00,,,0.29,weatherlink.com 1.10,2013-01-15 05:40:00,
2013-01-15 00:55:00,58.6,59.0,30.09,WSW,237,1.0,2.0,100,0.01,,,0.01,weatherlink.com 1.10,2013-01-15 05:55:00,
2013-01-15 01:10:00,58.5,59.0,30.09,WSW,237,0.0,1.0,100,0.01,,,0.01,weatherlink.com 1.10,2013-01-15 06:10:00,
2013-01-15 01:25:00,58.3,58.0,30.09,WSW,237,0.0,0.0,100,0.01,,,0.01,weatherlink.com 1.10,2013-01-15 06:25:00,
2013-01-15 01:40:00,58.3,58.0,30.09,WSW,237,0.0,0.0,100,0.01,,,0.01,weatherlink.com 1.10,2013-01-15 06:40:00,
2013-01-15 01:55:00,58.2,58.0,30.09,WSW,237,0.0,1.0,100,0.00,,,0.01,weatherlink.com 1.10,2013-01-15 06:55:00,
2013-01-15 02:10:00,58.3,58.0,30.09,North,360,0.0,5.0,100,0.00,,,0.01,weatherlink.com 1.10,2013-01-15 07:10:00,
2013-01-15 02:25:00,57.7,58.0,30.09,NNE,19,0.0,6.0,100,0.00,,,0.01,weatherlink.com 1.10,2013-01-15 07:25:00,
2013-01-15 02:40:00,57.3,57.0,30.08,NNE,31,0.0,5.0,100,0.01,,,0.02,weatherlink.com 1.10,2013-01-15 07:40:00,
2013-01-15 02:55:00,57.1,57.0,30.08,WNW,300,0.0,3.0,100,0.01,,,0.02,weatherlink.com 1.10,2013-01-15 07:55:00,
2013-01-15 03:10:00,56.8,57.0,30.08,NW,312,0.0,4.0,100,0.01,,,0.02,weatherlink.com 1.10,2013-01-15 08:10:00,
2013-01-15 03:25:00,56.6,57.0,30.09,NW,316,0.0,4.0,100,0.02,,,0.03,weatherlink.com 1.10,2013-01-15 08:25:00,
2013-01-15 03:40:00,55.9,56.0,30.08,NW,314,2.0,6.0,100,0.03,,,0.05,weatherlink.com 1.10,2013-01-15 08:40:00,
2013-01-15 03:55:00,54.6,55.0,30.07,North,360,1.0,9.0,100,0.04,,,0.06,weatherlink.com 1.10,2013-01-15 08:55:00,
2013-01-15 04:10:00,53.8,54.0,30.07,WNW,286,2.0,7.0,100,0.04,,,0.06,weatherlink.com 1.10,2013-01-15 09:10:00,
2013-01-15 04:25:00,53.3,53.0,30.07,NNW,334,2.0,9.0,100,0.03,,,0.06,weatherlink.com 1.10,2013-01-15 09:25:00,
2013-01-15 04:40:00,53.0,53.0,30.07,WNW,297,1.0,6.0,100,0.02,,,0.07,weatherlink.com 1.10,2013-01-15 09:40:00,
2013-01-15 04:55:00,52.4,52.0,30.06,West,259,3.0,7.0,100,0.02,,,0.08,weatherlink.com 1.10,2013-01-15 09:55:00,
2013-01-15 05:10:00,51.9,52.0,30.06,WNW,293,5.0,12.0,100,0.02,,,0.08,weatherlink.com 1.10,2013-01-15 10:10:00,
2013-01-15 05:25:00,51.7,52.0,30.06,West,268,4.0,6.0,100,0.02,,,0.08,weatherlink.com 1.10,2013-01-15 10:25:00,
2013-01-15 05:40:00,51.4,51.0,30.06,NW,314,4.0,8.0,100,0.01,,,0.08,weatherlink.com 1.10,2013-01-15 10:40:00,
2013-01-15 05:55:00,51.3,51.0,30.07,WNW,289,2.0,6.0,100,0.01,,,0.09,weatherlink.com 1.10,2013-01-15 10:55:00,
2013-01-15 06:10:00,50.7,51.0,30.08,SW,228,2.0,8.0,100,0.02,,,0.10,weatherlink.com 1.10,2013-01-15 11:10:00,
2013-01-15 06:25:00,50.3,50.0,30.08,WNW,303,1.0,9.0,100,0.02,,,0.10,weatherlink.com 1.10,2013-01-15 11:25:00,
2013-01-15 06:40:00,50.2,50.0,30.09,NW,316,6.0,7.0,100,0.03,,,0.11,weatherlink.com 1.10,2013-01-15 11:40:00,
2013-01-15 06:55:00,49.5,50.0,30.10,NW,322,5.0,8.0,100,0.02,,,0.11,weatherlink.com 1.10,2013-01-15 11:55:00,
2013-01-15 07:10:00,49.1,49.0,30.11,WNW,289,5.0,10.0,100,0.02,,,0.12,weatherlink.com 1.10,2013-01-15 12:10:00,
2013-01-15 07:26:00,48.8,49.0,30.12,WNW,290,4.0,9.0,100,0.02,,,0.12,weatherlink.com 1.10,2013-01-15 12:26:00,
2013-01-15 07:41:00,48.3,48.0,30.13,WNW,297,4.0,10.0,100,0.01,,,0.12,weatherlink.com 1.10,2013-01-15 12:41:00,
2013-01-15 07:56:00,48.2,48.0,30.13,NW,318,4.0,8.0,100,0.01,,,0.12,weatherlink.com 1.10,2013-01-15 12:56:00,
2013-01-15 08:11:00,48.1,48.0,30.13,WNW,297,0.0,8.0,100,0.01,,,0.13,weatherlink.com 1.10,2013-01-15 13:11:00,
2013-01-15 08:26:00,48.0,48.0,30.14,WNW,295,0.0,3.0,100,0.01,,,0.13,weatherlink.com 1.10,2013-01-15 13:26:00,
2013-01-15 08:41:00,48.0,48.0,30.15,NW,315,3.0,6.0,100,0.01,,,0.13,weatherlink.com 1.10,2013-01-15 13:41:00,
2013-01-15 08:56:00,47.9,48.0,30.15,WNW,285,0.0,9.0,100,0.01,,,0.13,weatherlink.com 1.10,2013-01-15 13:56:00,
2013-01-15 09:11:00,47.8,48.0,30.15,WNW,299,1.0,8.0,100,0.00,,,0.13,weatherlink.com 1.10,2013-01-15 14:11:00,
2013-01-15 09:26:00,47.5,48.0,30.15,WNW,295,3.0,6.0,100,0.01,,,0.14,weatherlink.com 1.10,2013-01-15 14:26:00,
2013-01-15 09:41:00,47.3,47.0,30.15,NW,320,3.0,7.0,100,0.01,,,0.14,weatherlink.com 1.10,2013-01-15 14:41:00,
2013-01-15 09:56:00,47.2,47.0,30.15,NW,324,0.0,7.0,100,0.01,,,0.14,weatherlink.com 1.10,2013-01-15 14:56:00,
2013-01-15 10:11:00,47.1,47.0,30.15,NW,320,0.0,9.0,100,0.01,,,0.14,weatherlink.com 1.10,2013-01-15 15:11:00,
2013-01-15 10:26:00,47.0,47.0,30.14,NNE,19,1.0,9.0,100,0.00,,,0.14,weatherlink.com 1.10,2013-01-15 15:26:00,
2013-01-15 10:41:00,46.9,47.0,30.15,NW,324,2.0,8.0,100,0.00,,,0.14,weatherlink.com 1.10,2013-01-15 15:41:00,
2013-01-15 10:56:00,46.7,47.0,30.15,NW,306,2.0,9.0,100,0.00,,,0.14,weatherlink.com 1.10,2013-01-15 15:56:00,
2013-01-15 11:11:00,46.3,46.0,30.16,WNW,299,2.0,8.0,100,0.00,,,0.14,weatherlink.com 1.10,2013-01-15 16:11:00,
2013-01-15 11:26:00,46.2,46.0,30.15,NNW,329,2.0,9.0,100,0.00,,,0.14,weatherlink.com 1.10,2013-01-15 16:26:00,
2013-01-15 11:41:00,45.7,46.0,30.14,WNW,299,4.0,11.0,100,0.00,,,0.14,weatherlink.com 1.10,2013-01-15 16:41:00,
2013-01-15 11:56:00,45.5,46.0,30.13,NW,311,6.0,11.0,100,0.00,,,0.14,weatherlink.com 1.10,2013-01-15 16:56:00,
2013-01-15 12:11:00,45.4,45.0,30.12,NW,310,1.0,10.0,100,0.00,,,0.14,weatherlink.com 1.10,2013-01-15 17:11:00,
2013-01-15 12:26:00,45.4,45.0,30.12,NW,316,5.0,9.0,100,0.00,,,0.14,weatherlink.com 1.10,2013-01-15 17:26:00,
2013-01-15 12:41:00,45.3,45.0,30.11,WNW,297,2.0,8.0,100,0.00,,,0.14,weatherlink.com 1.10,2013-01-15 17:41:00,
2013-01-15 12:56:00,45.3,45.0,30.11,NNW,336,2.0,7.0,100,0.00,,,0.14,weatherlink.com 1.10,2013-01-15 17:56:00,
2013-01-15 13:11:00,45.2,45.0,30.10,NNW,331,5.0,9.0,100,0.00,,,0.14,weatherlink.com 1.10,2013-01-15 18:11:00,
2013-01-15 13:26:00,45.2,45.0,30.09,NW,319,4.0,7.0,100,0.00,,,0.14,weatherlink.com 1.10,2013-01-15 18:26:00,
2013-01-15 13:41:00,45.0,45.0,30.09,NNW,333,2.0,10.0,100,0.00,,,0.14,weatherlink.com 1.10,2013-01-15 18:41:00,
2013-01-15 13:56:00,44.9,45.0,30.09,WNW,303,3.0,9.0,100,0.00,,,0.14,weatherlink.com 1.10,2013-01-15 18:56:00,
2013-01-15 14:11:00,44.8,45.0,30.08,NNW,329,4.0,9.0,100,0.00,,,0.14,weatherlink.com 1.10,2013-01-15 19:11:00,
2013-01-15 14:26:00,44.8,45.0,30.08,NW,306,2.0,9.0,100,0.00,,,0.14,weatherlink.com 1.10,2013-01-15 19:26:00,
2013-01-15 14:41:00,44.8,45.0,30.07,NW,305,5.0,10.0,100,0.00,,,0.14,weatherlink.com 1.10,2013-01-15 19:41:00,
2013-01-15 14:56:00,44.7,45.0,30.08,NW,304,3.0,8.0,100,0.00,,,0.14,weatherlink.com 1.10,2013-01-15 19:56:00,
2013-01-15 15:11:00,44.5,45.0,30.08,NW,304,1.0,11.0,100,0.00,,,0.14,weatherlink.com 1.10,2013-01-15 20:11:00,
2013-01-15 15:26:00,44.5,45.0,30.08,WNW,288,3.0,12.0,100,0.00,,,0.14,weatherlink.com 1.10,2013-01-15 20:26:00,
2013-01-15 15:41:00,44.4,44.0,30.08,NW,312,4.0,8.0,100,0.00,,,0.14,weatherlink.com 1.10,2013-01-15 20:41:00,
2013-01-15 15:56:00,44.3,44.0,30.09,NW,310,2.0,8.0,100,0.00,,,0.14,weatherlink.com 1.10,2013-01-15 20:56:00,
2013-01-15 16:11:00,44.2,44.0,30.09,WNW,299,8.0,10.0,100,0.00,,,0.14,weatherlink.com 1.10,2013-01-15 21:11:00,
2013-01-15 16:26:00,44.0,44.0,30.09,WNW,299,4.0,7.0,100,0.00,,,0.14,weatherlink.com 1.10,2013-01-15 21:26:00,
2013-01-15 16:56:00,43.5,44.0,30.09,NW,308,5.0,11.0,100,0.00,,,0.14,weatherlink.com 1.10,2013-01-15 21:56:00,
2013-01-15 17:11:00,43.4,43.0,30.09,NW,304,1.0,9.0,100,0.00,,,0.14,weatherlink.com 1.10,2013-01-15 22:11:00,
2013-01-15 17:27:00,43.4,43.0,30.09,NNW,333,2.0,9.0,100,0.00,,,0.14,weatherlink.com 1.10,2013-01-15 22:27:00,
2013-01-15 17:42:00,43.0,43.0,30.10,NW,308,3.0,11.0,100,0.00,,,0.14,weatherlink.com 1.10,2013-01-15 22:42:00,
2013-01-15 17:57:00,42.8,43.0,30.10,WNW,294,4.0,12.0,100,0.00,,,0.14,weatherlink.com 1.10,2013-01-15 22:57:00,
2013-01-15 18:12:00,42.6,43.0,30.11,WNW,282,4.0,10.0,100,0.00,,,0.14,weatherlink.com 1.10,2013-01-15 23:12:00,
2013-01-15 18:27:00,42.5,43.0,30.10,NW,311,1.0,8.0,100,0.00,,,0.14,weatherlink.com 1.10,2013-01-15 23:27:00,
2013-01-15 18:42:00,42.5,43.0,30.11,NW,312,0.0,6.0,100,0.00,,,0.14,weatherlink.com 1.10,2013-01-15 23:42:00,
2013-01-15 18:57:00,42.3,42.0,30.11,NW,306,7.0,9.0,100,0.00,,,0.14,weatherlink.com 1.10,2013-01-15 23:57:00,
2013-01-15 19:12:00,41.8,42.0,30.11,NW,305,1.0,12.0,100,0.00,,,0.14,weatherlink.com 1.10,2013-01-16 00:12:00,
2013-01-15 19:27:00,41.4,41.0,30.10,NW,313,3.0,8.0,100,0.00,,,0.14,weatherlink.com 1.10,2013-01-16 00:27:00,
2013-01-15 19:42:00,41.2,41.0,30.10,WNW,296,13.0,13.0,100,0.00,,,0.14,weatherlink.com 1.10,2013-01-16 00:42:00,
2013-01-15 19:57:00,41.1,41.0,30.10,NW,326,2.0,9.0,100,0.00,,,0.14,weatherlink.com 1.10,2013-01-16 00:57:00,
2013-01-15 20:12:00,41.0,41.0,30.10,NW,313,2.0,8.0,100,0.00,,,0.14,weatherlink.com 1.10,2013-01-16 01:12:00,
2013-01-15 20:27:00,41.1,41.0,30.09,NNW,345,3.0,9.0,100,0.00,,,0.14,weatherlink.com 1.10,2013-01-16 01:27:00,
2013-01-15 20:42:00,40.9,41.0,30.09,NW,323,5.0,11.0,100,0.00,,,0.14,weatherlink.com 1.10,2013-01-16 01:42:00,
2013-01-15 20:57:00,40.9,41.0,30.08,NW,313,1.0,6.0,100,0.00,,,0.14,weatherlink.com 1.10,2013-01-16 01:57:00,
2013-01-15 21:12:00,40.8,41.0,30.07,NW,310,2.0,7.0,100,0.00,,,0.14,weatherlink.com 1.10,2013-01-16 02:12:00,
2013-01-15 21:27:00,40.6,41.0,30.06,NW,321,2.0,8.0,100,0.00,,,0.14,weatherlink.com 1.10,2013-01-16 02:27:00,
2013-01-15 21:42:00,40.5,41.0,30.07,WNW,299,3.0,9.0,100,0.00,,,0.14,weatherlink.com 1.10,2013-01-16 02:42:00,
2013-01-15 21:57:00,40.5,41.0,30.07,NW,316,5.0,9.0,100,0.00,,,0.14,weatherlink.com 1.10,2013-01-16 02:57:00,
2013-01-15 22:12:00,40.5,41.0,30.06,WNW,303,0.0,7.0,100,0.00,,,0.14,weatherlink.com 1.10,2013-01-16 03:12:00,
2013-01-15 22:27:00,40.5,41.0,30.07,NW,311,9.0,9.0,100,0.00,,,0.14,weatherlink.com 1.10,2013-01-16 03:27:00,
2013-01-15 22:42:00,40.5,41.0,30.07,NW,316,4.0,8.0,100,0.00,,,0.14,weatherlink.com 1.10,2013-01-16 03:42:00,
2013-01-15 22:57:00,40.5,41.0,30.08,WNW,284,4.0,9.0,100,0.00,,,0.14,weatherlink.com 1.10,2013-01-16 03:57:00,
2013-01-15 23:12:00,40.6,41.0,30.07,WNW,295,3.0,9.0,100,0.00,,,0.14,weatherlink.com 1.10,2013-01-16 04:12:00,
2013-01-15 23:27:00,40.7,41.0,30.07,NNE,25,3.0,10.0,100,0.00,,,0.14,weatherlink.com 1.10,2013-01-16 04:27:00,
2013-01-15 23:42:00,40.7,41.0,30.06,WNW,284,2.0,9.0,100,0.00,,,0.14,weatherlink.com 1.10,2013-01-16 04:42:00,
2013-01-15 23:57:00,40.6,41.0,30.05,WNW,302,0.0,4.0,100,0.00,,,0.14,weatherlink.com 1.10,2013-01-16 04:57:00,